Weather History for St. Joseph, MO

Change the Weather History Date:

Friday, October 12, 2012

  Actual Average Record
Temperature  
Mean Temperature 54 °F 56 °F  
Max Temperature 58 °F 69 °F 92 °F (1975)
Min Temperature 49 °F 44 °F 27 °F (1987)
Degree Days  
Heating Degree Days 11 9  
Month to date heating degree days 170 95  
Since 1 July heating degree days 280 175  
Cooling Degree Days 0 1  
Month to date cooling degree days 1 17  
Year to date cooling degree days 1532 1216  
Growing Degree Days 2 (Base 50)    
Moisture  
Dew Point 33 °F    
Average Humidity 55    
Maximum Humidity 72    
Minimum Humidity 38    
Precipitation  
Precipitation T in 0.10 in 1.79 in (1957)
Month to date precipitation 0.01 1.10  
Year to date precipitation 18.88 30.82  
Sea Level Pressure  
Sea Level Pressure 30.24 in    
Wind  
Wind Speed 10 mph (ESE)    
Max Wind Speed 20 mph    
Max Gust Speed 28 mph    
Visibility 10 miles    
Events Rain    
T = Trace of Precipitation, MM = Missing Value Source: NWS Daily Summary

Daily Weather History Graph

Daily Weather History Graph

Search for Another Location

Airport:

Trip Planner

Search our weather history database for the weather conditions in past years. The results will help you decide how hot, cold, wet, or windy it might be!

Date:

Astronomy

Oct. 12, 2012 Rise Set
Actual Time 7:27 AM CDT 6:43 PM CDT
Civil Twilight 7:00 AM CDT 7:11 PM CDT
Nautical Twilight 6:28 AM CDT 7:42 PM CDT
Astronomical Twilight 5:57 AM CDT 8:13 PM CDT
Moon 4:11 AM CDT (10/12) 4:53 PM CDT (10/12)
Length of Visible Light 12h 10m
Length of Day
11h 16m
Waning Crescent, 10% of the Moon is Illuminated
Oct 12
Waning Crescent
Oct 15
New
Oct 21
First Quarter
Oct 29
Full
Nov 6
Last Quarter

Hourly Weather History & Observations

Time (CDT) Temp. Dew Point Humidity Pressure Visibility Wind Dir Wind Speed Gust Speed Precip Events Conditions
12:53 AM 53.1 °F 28.0 °F 38% 30.27 in 10.0 mi NE 16.1 mph - N/A   Overcast
1:53 AM 51.1 °F 26.1 °F 38% 30.28 in 10.0 mi NE 16.1 mph - N/A   Overcast
3:53 AM 50.0 °F 26.1 °F 39% 30.29 in 10.0 mi NE 11.5 mph 19.6 mph N/A   Overcast
4:53 AM 50.0 °F 26.1 °F 39% 30.28 in 10.0 mi ENE 11.5 mph 19.6 mph N/A   Overcast
5:53 AM 48.9 °F 26.1 °F 41% 30.29 in 10.0 mi ENE 11.5 mph 20.7 mph N/A   Overcast
6:53 AM 48.9 °F 25.0 °F 39% 30.32 in 10.0 mi East 11.5 mph - N/A   Overcast
7:53 AM 48.9 °F 26.1 °F 41% 30.32 in 10.0 mi East 9.2 mph - N/A   Overcast
8:53 AM 50.0 °F 27.0 °F 41% 30.32 in 10.0 mi East 11.5 mph 19.6 mph N/A   Overcast
9:53 AM 51.1 °F 27.0 °F 39% 30.33 in 10.0 mi East 13.8 mph 20.7 mph N/A   Overcast
10:53 AM 52.0 °F 28.0 °F 40% 30.34 in 10.0 mi ESE 12.7 mph - N/A   Overcast
11:53 AM 55.0 °F 30.9 °F 40% 30.32 in 10.0 mi ESE 10.4 mph 18.4 mph N/A   Mostly Cloudy
12:53 PM 55.0 °F 32.0 °F 42% 30.30 in 10.0 mi ESE 10.4 mph - N/A   Overcast
1:53 PM 55.0 °F 33.1 °F 43% 30.24 in 10.0 mi East 10.4 mph - N/A   Overcast
2:21 PM 55.4 °F 33.8 °F 44% 30.24 in 10.0 mi East 6.9 mph - N/A   Overcast
2:53 PM 55.0 °F 35.1 °F 47% 30.23 in 10.0 mi ESE 9.2 mph - N/A   Overcast
3:53 PM 55.9 °F 37.0 °F 49% 30.19 in 10.0 mi ESE 10.4 mph 17.3 mph N/A   Overcast
5:53 PM 57.0 °F 41.0 °F 55% 30.19 in 10.0 mi SSE 11.5 mph - 0.00 in Rain Light Rain
6:53 PM 57.0 °F 41.0 °F 55% 30.15 in 10.0 mi SE 6.9 mph - 0.00 in   Overcast
7:53 PM 57.0 °F 43.0 °F 59% 30.14 in 10.0 mi SE 5.8 mph - N/A   Overcast
9:53 PM 57.0 °F 44.1 °F 62% 30.10 in 10.0 mi SE 9.2 mph - 0.00 in Rain Light Rain
10:53 PM 57.9 °F 46.9 °F 67% 30.10 in 10.0 mi SE 5.8 mph - 0.00 in   Overcast
11:53 PM 57.9 °F 48.9 °F 72% 30.07 in 10.0 mi SE 9.2 mph - N/A   Overcast